Weather History for KPBG - April, 2013

Change the Weather History Date:

Sunday, April 7, 2013

  Actual Average Record
Temperature  
Mean Temperature 44 °F 39 °F  
Max Temperature 57 °F 49 °F 84 °F (1991)
Min Temperature 30 °F 28 °F 12 °F (1972)
Degree Days  
Heating Degree Days 21 26  
Month to date heating degree days 203 194  
Since 1 July heating degree days 6372 6877  
Cooling Degree Days 0 0  
Month to date cooling degree days 0 0  
Year to date cooling degree days 0 0  
Moisture  
Dew Point 25 °F    
Average Humidity 47    
Maximum Humidity 64    
Minimum Humidity 30    
Precipitation  
Precipitation T in - 0.93 in (1987)
Month to date precipitation T  
Year to date precipitation 2.36  
Sea Level Pressure  
Sea Level Pressure 29.93 in    
Wind  
Wind Speed 14 mph (South)    
Max Wind Speed 32 mph    
Max Gust Speed 44 mph    
Visibility 10 miles    
Events Rain    
T = Trace of Precipitation, MM = Missing Value Source: NWS Daily Summary

Daily Weather History Graph

Daily Weather History Graph

Search for Another Location

Airport or City:

Trip Planner

Search our weather history database for the weather conditions in past years. The results will help you decide how hot, cold, wet, or windy it might be!

Date:

Astronomy

Apr. 07, 2013 Rise Set
Actual Time 6:23 AM EDT 7:29 PM EDT
Civil Twilight 5:53 AM EDT 7:59 PM EDT
Nautical Twilight 5:17 AM EDT 8:34 PM EDT
Astronomical Twilight 4:40 AM EDT 9:12 PM EDT
Moon 4:45 AM EDT (4/7) 4:53 PM EDT (4/7)
Length of Visible Light 14h 05m
Length of Day
13h 05m
Waning Crescent, 8% of the Moon is Illuminated
Apr 7
Waning Crescent
Apr 10
New
Apr 18
First Quarter
Apr 25
Full
May 2
Last Quarter

Hourly Weather History & Observations

Time (EDT) Temp. Windchill Dew Point Humidity Pressure Visibility Wind Dir Wind Speed Gust Speed Precip Events Conditions
12:53 AM 30.0 °F - 19.9 °F 66% 30.23 in 10.0 mi Calm Calm - N/A   Overcast
1:53 AM 30.9 °F 27.5 °F 18.0 °F 59% 30.19 in 10.0 mi SSE 3.5 mph - N/A   Overcast
2:53 AM 30.9 °F - 19.9 °F 64% 30.16 in 10.0 mi Calm Calm - N/A   Clear
3:53 AM 32.0 °F 27.5 °F 19.0 °F 59% 30.12 in 10.0 mi WNW 4.6 mph - N/A   Overcast
4:53 AM 32.0 °F - 21.0 °F 64% 30.10 in 10.0 mi Calm Calm - N/A   Overcast
5:53 AM 36.0 °F 29.0 °F 24.1 °F 62% 30.08 in 10.0 mi SE 9.2 mph - 0.00 in Rain Light Rain
6:53 AM 36.0 °F 26.7 °F 23.0 °F 59% 30.06 in 10.0 mi SSE 15.0 mph - 0.00 in Rain Light Rain
7:53 AM 39.9 °F 31.8 °F 17.1 °F 40% 30.02 in 10.0 mi SSE 15.0 mph 27.6 mph 0.00 in   Overcast
8:53 AM 39.9 °F 31.8 °F 21.0 °F 47% 29.98 in 10.0 mi SSE 15.0 mph - N/A   Overcast
9:53 AM 44.1 °F 37.4 °F 19.9 °F 38% 29.95 in 10.0 mi South 13.8 mph - N/A   Partly Cloudy
10:53 AM 46.0 °F 38.0 °F 23.0 °F 40% 29.92 in 10.0 mi SSE 21.9 mph 31.1 mph N/A   Scattered Clouds
11:53 AM 48.9 °F - 26.1 °F 41% 29.88 in 10.0 mi SSE 18.4 mph 26.5 mph N/A   Clear
12:53 PM 55.0 °F - 27.0 °F 34% 29.82 in 10.0 mi SSE 17.3 mph 27.6 mph N/A   Clear
1:53 PM 55.0 °F - 25.0 °F 31% 29.80 in 10.0 mi South 24.2 mph 38.0 mph N/A   Clear
2:53 PM 53.1 °F - 25.0 °F 34% 29.80 in 10.0 mi SSE 26.5 mph 39.1 mph N/A   Mostly Cloudy
3:53 PM 54.0 °F - 28.9 °F 38% 29.79 in 10.0 mi South 21.9 mph 28.8 mph 0.00 in   Overcast
4:53 PM 55.9 °F - 30.9 °F 39% 29.77 in 10.0 mi South 15.0 mph 28.8 mph N/A   Partly Cloudy
5:53 PM 57.0 °F - 28.0 °F 33% 29.76 in 10.0 mi South 23.0 mph 29.9 mph N/A   Clear
6:53 PM 55.0 °F - 30.0 °F 38% 29.74 in 10.0 mi South 16.1 mph 28.8 mph N/A   Overcast
7:53 PM 55.9 °F - 28.0 °F 34% 29.75 in 10.0 mi South 16.1 mph 21.9 mph N/A   Overcast
8:53 PM 55.0 °F - 28.9 °F 37% 29.78 in 10.0 mi South 12.7 mph - N/A   Overcast
9:53 PM 54.0 °F - 30.0 °F 40% 29.80 in 10.0 mi South 11.5 mph - N/A   Overcast
10:53 PM 55.0 °F - 34.0 °F 45% 29.83 in 10.0 mi NW 8.1 mph - N/A   Overcast
11:53 PM 51.1 °F - 34.0 °F 52% 29.88 in 10.0 mi WNW 9.2 mph 18.4 mph N/A   Overcast